TimeCDT,TemperatureF,Dew PointF,Humidity,Sea Level PressureIn,VisibilityMPH,Wind Direction,Wind SpeedMPH,Gust SpeedMPH,PrecipitationIn,Events,Conditions,WindDirDegrees,DateUTC
12:32 AM,42.8,41.0,93,29.89,9.0,North,15.0,-,0.00,Rain,Light Rain,360,2013-05-04 05:32:00
12:52 AM,42.1,41.0,96,29.91,7.0,North,17.3,-,0.00,Rain,Light Rain,10,2013-05-04 05:52:00
1:48 AM,44.6,44.6,100,29.90,4.0,NNE,12.7,-,0.04,Rain,Light Rain,30,2013-05-04 06:48:00
1:52 AM,45.0,44.1,97,29.91,4.0,NNE,12.7,-,0.04,Rain,Light Rain,30,2013-05-04 06:52:00
2:39 AM,46.4,46.4,100,29.86,4.0,NNE,15.0,-,0.01,Rain,Light Rain,20,2013-05-04 07:39:00
2:52 AM,48.0,46.0,93,29.88,4.0,NE,13.8,21.9,0.01,Rain,Light Rain,50,2013-05-04 07:52:00
3:28 AM,48.2,46.4,93,29.87,3.0,NE,13.8,-,0.01,Rain,Light Rain,50,2013-05-04 08:28:00
3:52 AM,48.9,48.0,97,29.89,4.0,ENE,13.8,-,0.01,Rain,Light Rain,60,2013-05-04 08:52:00
4:07 AM,50.0,48.2,94,29.87,4.0,ENE,12.7,20.7,0.00,Rain,Light Rain,70,2013-05-04 09:07:00
4:52 AM,50.0,48.9,96,29.89,3.0,ENE,13.8,-,0.02,Rain,Light Rain,70,2013-05-04 09:52:00
5:52 AM,51.1,50.0,96,29.89,4.0,ENE,11.5,-,0.02,Rain,Light Rain,60,2013-05-04 10:52:00
6:52 AM,52.0,51.1,97,29.90,3.0,NE,11.5,-,0.01,Rain,Light Rain,50,2013-05-04 11:52:00
7:47 AM,51.8,51.8,100,29.90,3.0,NE,11.5,-,0.00,,Overcast,50,2013-05-04 12:47:00
7:52 AM,52.0,51.1,97,29.92,3.0,NE,13.8,-,0.00,,Overcast,50,2013-05-04 12:52:00
8:16 AM,53.6,51.8,94,29.91,4.0,ENE,12.7,-,0.00,,Overcast,60,2013-05-04 13:16:00
8:52 AM,55.0,53.1,93,29.94,6.0,ENE,15.0,-,0.00,,Mostly Cloudy,70,2013-05-04 13:52:00
9:52 AM,57.9,54.0,87,29.96,8.0,East,13.8,-,N/A,,Mostly Cloudy,90,2013-05-04 14:52:00
10:14 AM,57.2,53.6,88,29.95,8.0,ENE,13.8,-,N/A,,Overcast,70,2013-05-04 15:14:00
10:29 AM,57.2,53.6,88,29.96,7.0,ENE,11.5,-,N/A,,Overcast,70,2013-05-04 15:29:00
10:52 AM,57.0,54.0,89,29.97,7.0,ENE,11.5,-,N/A,,Overcast,70,2013-05-04 15:52:00
11:14 AM,57.2,55.4,94,29.96,7.0,ENE,8.1,-,N/A,,Overcast,60,2013-05-04 16:14:00
11:52 AM,60.1,55.9,86,29.97,8.0,ENE,10.4,-,N/A,,Overcast,70,2013-05-04 16:52:00
12:52 PM,64.0,57.0,78,29.96,10.0,ENE,13.8,-,N/A,,Overcast,60,2013-05-04 17:52:00
1:52 PM,64.0,55.9,75,29.95,10.0,ENE,10.4,-,N/A,,Overcast,70,2013-05-04 18:52:00
2:19 PM,64.4,55.4,73,29.94,10.0,ENE,12.7,-,N/A,,Overcast,70,2013-05-04 19:19:00
2:27 PM,64.4,55.4,73,29.94,10.0,ENE,15.0,-,N/A,,Overcast,70,2013-05-04 19:27:00
2:52 PM,64.0,55.9,75,29.94,10.0,Variable,6.9,-,0.00,,Overcast,0,2013-05-04 19:52:00
3:52 PM,57.9,55.9,93,29.94,10.0,South,6.9,-,0.02,,Overcast,190,2013-05-04 20:52:00
4:52 PM,60.1,55.9,86,29.94,10.0,Calm,Calm,-,0.00,Rain,Light Rain,0,2013-05-04 21:52:00
5:46 PM,59.0,57.2,94,29.97,1.8,SE,12.7,17.3,0.08,Rain,Heavy Rain,140,2013-05-04 22:46:00
5:52 PM,59.0,57.0,93,29.96,1.2,South,11.5,17.3,0.13,Rain,Heavy Rain,180,2013-05-04 22:52:00
6:05 PM,57.2,55.4,94,29.96,3.0,SSW,4.6,-,0.05,Rain,Rain,200,2013-05-04 23:05:00
6:52 PM,57.0,55.9,96,29.96,10.0,WNW,4.6,-,0.06,,Overcast,290,2013-05-04 23:52:00
7:38 PM,57.2,55.4,94,29.99,1.8,SE,5.8,-,0.04,Rain,Rain,130,2013-05-05 00:38:00
7:52 PM,57.0,55.9,96,29.99,2.5,SW,5.8,-,0.07,Rain,Light Rain,230,2013-05-05 00:52:00
8:01 PM,57.2,55.4,94,29.99,4.0,Calm,Calm,-,0.00,Rain,Light Rain,0,2013-05-05 01:01:00
8:52 PM,55.9,55.0,97,30.00,3.0,Calm,Calm,-,0.05,Rain,Light Rain,0,2013-05-05 01:52:00
9:33 PM,55.4,55.4,100,30.02,3.0,NE,3.5,-,0.17,Rain,Light Rain,40,2013-05-05 02:33:00
9:45 PM,55.4,55.4,100,30.02,4.0,East,3.5,-,0.18,Rain,Light Rain,90,2013-05-05 02:45:00
9:52 PM,57.0,55.9,96,30.02,4.0,East,3.5,-,0.18,Rain,Light Rain,90,2013-05-05 02:52:00
10:07 PM,55.4,55.4,100,30.02,3.0,ENE,3.5,-,0.00,,Overcast,70,2013-05-05 03:07:00
10:52 PM,55.9,55.0,97,30.02,3.0,Calm,Calm,-,0.00,,Overcast,0,2013-05-05 03:52:00
10:57 PM,55.4,55.4,100,30.02,1.5,North,3.5,-,N/A,,Overcast,360,2013-05-05 03:57:00
11:04 PM,55.4,55.4,100,30.02,3.0,Calm,Calm,-,N/A,,Overcast,0,2013-05-05 04:04:00
11:52 PM,55.0,54.0,96,30.03,3.0,Calm,Calm,-,N/A,,Mostly Cloudy,0,2013-05-05 04:52:00
11:55 PM,55.4,53.6,94,30.03,0.8,Calm,Calm,-,N/A,,Mostly Cloudy,0,2013-05-05 04:55:00